Location: Bazugues
(43.4465°N, 0.3432°E)
Time: 13:59:47
(UTC+00:00)

USA 267 - Visible Passes

Search period start: 19 April 2026 00:00
Search period end: 29 April 2026 00:00
Orbit: 1101 x 1107 km, 123.0° (Epoch: 10 January)

Date Brightness Start Highest point End Pass type
(mag) Time Alt. Az. Time Alt. Az. Time Alt. Az.
19 Apr 5.2 00:11:09 10° ENE 00:12:55 16° E 00:12:55 16° E visible
19 Apr 3.1 01:52:59 10° NE 01:59:35 80° SE 02:00:15 72° SSW visible
19 Apr 4.1 03:36:13 10° NE 03:42:16 41° NNW 03:47:36 13° W visible
20 Apr 3.9 01:10:25 10° ENE 01:15:43 41° ESE 01:15:43 41° ESE visible
20 Apr 3.5 02:53:19 10° NE 02:59:47 62° NNW 03:03:04 30° WSW visible
20 Apr 4.6 04:36:27 10° NE 04:42:02 31° NNW 04:47:38 10° WNW visible
21 Apr 5.0 00:28:37 10° ENE 00:31:12 18° E 00:31:12 18° E visible
21 Apr 3.2 02:10:28 10° NE 02:17:04 80° SE 02:18:32 57° SSW visible
21 Apr 4.1 03:53:42 10° NE 03:59:45 41° NNW 04:05:47 10° W visible
22 Apr 3.8 01:27:54 10° ENE 01:34:01 43° SE 01:34:01 43° SE visible
22 Apr 3.5 03:10:48 10° NE 03:17:15 62° NNW 03:21:22 24° WSW visible
23 Apr 4.9 00:46:05 10° ENE 00:49:30 20° ESE 00:49:30 20° ESE visible
23 Apr 3.2 02:27:57 10° NE 02:34:33 81° SE 02:36:51 44° SW visible
23 Apr 4.1 04:11:11 10° NE 04:17:13 41° NNW 04:23:15 10° W visible
24 Apr 3.7 01:45:23 10° ENE 01:51:36 44° SE 01:52:21 42° SSE visible
24 Apr 3.5 03:28:17 10° NE 03:34:45 62° NNW 03:39:42 18° WSW visible
25 Apr 4.8 01:03:34 10° ENE 01:07:52 21° ESE 01:07:52 21° ESE visible
25 Apr 3.2 02:45:26 10° NE 02:52:02 81° SE 02:55:12 34° SW visible
26 Apr 3.8 02:02:52 10° ENE 02:09:05 44° SE 02:10:43 38° SSE visible
26 Apr 3.5 03:45:46 10° NE 03:52:13 62° NNW 03:58:04 13° WSW visible
27 Apr 4.7 01:21:02 10° ENE 01:25:54 22° ESE 01:26:15 22° SE visible
27 Apr 3.3 03:02:55 10° NE 03:09:31 81° SE 03:13:36 25° SW visible
28 Apr 3.9 02:20:20 10° ENE 02:26:34 44° SE 02:29:08 31° S visible
28 Apr 3.6 04:03:15 10° NE 04:09:43 61° NNW 04:16:08 10° WSW visible
